Simultaneous Nadir Overpasses (SNOs) Predictions

Prediction of SNOs between GOES-16 and NOAA-19 Satellite Orbit:

Table of predicted SNOs for the next 14.0 days since TLE Epoch: 10/22/2022
Index Date Time (GOES-16) GOES-16 Lat,Lon NOAA-19 Lat,Lon Distance(km) Time Diff (sec)
1 10/23/2022 01:19:54 0.06, -75.19 -0.76, -78.84 415.59 80
2 10/24/2022 01:08:01 0.06, -75.20 -0.10, -75.94 83.93 80
3 10/25/2022 00:58:47 0.06, -75.21 0.57, -73.04 247.84 80
4 10/27/2022 13:16:31 -0.06, -75.25 0.56, -77.87 300.08 80
5 10/28/2022 13:07:18 -0.05, -75.25 -0.13, -74.98 31.90 80
6 10/29/2022 12:55:23 -0.05, -75.26 -0.76, -72.07 363.88 80
7 11/01/2022 01:13:17 0.04, -75.26 -0.33, -76.95 191.90 80
8 11/02/2022 01:04:04 0.04, -75.28 0.34, -74.05 140.47 80
9 11/03/2022 00:52:10 0.04, -75.29 1.02, -71.15 473.04 80
10 11/04/2022 13:24:25 -0.04, -75.34 0.75, -78.88 404.00 80
